Weather History for KSJS - August, 2014

Change the Weather History Date:

Tuesday, August 19, 2014

  Actual Average Record
Temperature  
Mean Temperature 76 °F -  
Max Temperature 83 °F - - ()
Min Temperature 68 °F - - ()
Cooling Degree Days 10    
Growing Degree Days 26 (Base 50)    
Moisture  
Dew Point 70 °F    
Average Humidity 88    
Maximum Humidity 100    
Minimum Humidity 64    
Precipitation  
Precipitation 0.00 in - - ()
Sea Level Pressure  
Sea Level Pressure 29.89 in    
Wind  
Wind Speed 3 mph (WSW)    
Max Wind Speed 8 mph    
Max Gust Speed -    
Visibility 7 miles    
Events Rain    
T = Trace of Precipitation, MM = Missing Value Source: NWS Daily Summary

Daily Weather History Graph

Daily Weather History Graph

Search for Another Location

Airport or City:

Trip Planner

Search our weather history database for the weather conditions in past years. The results will help you decide how hot, cold, wet, or windy it might be!

Date:

Astronomy

Aug. 19, 2014 Rise Set
Actual Time 6:49 AM EDT 8:18 PM EDT
Civil Twilight 6:21 AM EDT 8:45 PM EDT
Nautical Twilight 5:48 AM EDT 9:18 PM EDT
Astronomical Twilight 5:13 AM EDT 9:53 PM EDT
Moon 1:42 AM EDT (8/19) 4:11 PM EDT (8/19)
Length of Visible Light 14h 23m
Length of Day
13h 28m
Waning Crescent, 29% of the Moon is Illuminated
Aug 19
Waning Crescent
Aug 25
New
Sep 2
First Quarter
Sep 8
Full
Sep 15
Last Quarter

Hourly Weather History & Observations

Time (EDT) Temp. Heat Index Dew Point Humidity Pressure Visibility Wind Dir Wind Speed Gust Speed Precip Events Conditions
12:15 AM 70.9 °F - 70.7 °F 99% 29.87 in 5.0 mi Calm Calm - N/A   Overcast
12:55 AM 70.3 °F - 70.2 °F 99% 29.87 in 5.0 mi SW 3.5 mph - N/A   Overcast
1:15 AM 70.3 °F - 70.2 °F 99% 29.87 in 5.0 mi WSW 4.6 mph - N/A   Mostly Cloudy
1:35 AM 69.8 °F - 69.8 °F 100% 29.86 in 1.5 mi SW 3.5 mph - N/A   Overcast
1:55 AM 69.8 °F - 69.8 °F 100% 29.86 in 1.8 mi WSW 4.6 mph - N/A   Overcast
2:15 AM 69.8 °F - 69.8 °F 100% 29.86 in 4.0 mi SW 4.6 mph - N/A   Overcast
2:35 AM 69.8 °F - 69.6 °F 99% 29.86 in 5.0 mi Calm Calm - N/A   Overcast
2:55 AM 69.8 °F - 69.8 °F 100% 29.86 in 5.0 mi Calm Calm - N/A   Overcast
3:15 AM 69.8 °F - 69.6 °F 99% 29.85 in 5.0 mi WSW 3.5 mph - N/A   Mostly Cloudy
3:35 AM 69.8 °F - 69.4 °F 99% 29.86 in 5.0 mi SW 3.5 mph - N/A   Mostly Cloudy
3:55 AM 69.8 °F - 69.3 °F 98% 29.86 in 7.0 mi SSW 4.6 mph - N/A   Overcast
4:15 AM 69.4 °F - 69.1 °F 99% 29.86 in 5.0 mi Calm Calm - N/A   Mostly Cloudy
4:35 AM 69.3 °F - 69.1 °F 99% 29.86 in 4.0 mi Calm Calm - N/A   Mostly Cloudy
4:55 AM 69.3 °F - 69.1 °F 99% 29.86 in 4.0 mi SW 5.8 mph - N/A   Overcast
5:15 AM 69.1 °F - 68.9 °F 99% 29.86 in 4.0 mi Calm Calm - N/A   Overcast
5:35 AM 68.9 °F - 68.9 °F 100% 29.86 in 2.0 mi WSW 4.6 mph - N/A   Overcast
5:55 AM 68.9 °F - 68.9 °F 100% 29.87 in 1.8 mi WSW 4.6 mph - N/A   Overcast
6:15 AM 68.9 °F - 68.9 °F 100% 29.87 in 3.0 mi SW 4.6 mph - N/A   Overcast
6:35 AM 68.9 °F - 68.9 °F 100% 29.87 in 4.0 mi WSW 3.5 mph - N/A   Overcast
6:55 AM 69.1 °F - 68.9 °F 99% 29.88 in 3.0 mi WSW 3.5 mph - N/A   Overcast
7:15 AM 69.1 °F - 68.9 °F 99% 29.89 in 4.0 mi SW 3.5 mph - N/A   Overcast
7:35 AM 69.3 °F - 69.1 °F 99% 29.89 in 5.0 mi SW 3.5 mph - N/A   Overcast
7:50 AM 69.4 °F - 68.9 °F 98% 29.89 in 5.0 mi Calm Calm - N/A   Overcast
8:15 AM 69.8 °F - 69.1 °F 98% 29.90 in 5.0 mi WSW 3.5 mph - N/A   Overcast
8:30 AM 69.8 °F - 69.1 °F 98% 29.90 in 3.0 mi Calm Calm - N/A Rain Light Rain
8:55 AM 70.3 °F - 69.6 °F 98% 29.91 in 5.0 mi SW 4.6 mph - N/A   Overcast
9:15 AM 70.5 °F - 69.4 °F 96% 29.91 in 7.0 mi SW 4.6 mph - N/A   Overcast
9:35 AM 70.7 °F - 69.6 °F 96% 29.91 in 5.0 mi SW 3.5 mph - N/A   Overcast
9:55 AM 72.0 °F - 70.2 °F 94% 29.91 in 7.0 mi SSW 4.6 mph - N/A   Overcast
10:15 AM 73.0 °F - 71.2 °F 94% 29.92 in 7.0 mi WSW 4.6 mph - N/A   Overcast
10:35 AM 73.0 °F - 71.1 °F 93% 29.92 in 10.0 mi WSW 4.6 mph - N/A   Overcast
10:55 AM 73.2 °F - 70.5 °F 91% 29.93 in 10.0 mi WNW 4.6 mph - N/A   Overcast
11:15 AM 74.5 °F - 71.1 °F 89% 29.94 in 10.0 mi West 5.8 mph - N/A   Overcast
11:35 AM 76.1 °F - 71.8 °F 86% 29.94 in 10.0 mi West 4.6 mph - N/A   Overcast
11:50 AM 76.3 °F - 71.4 °F 85% 29.94 in 10.0 mi WNW 4.6 mph - N/A   Overcast
12:15 PM 77.9 °F - 71.6 °F 81% 29.93 in 10.0 mi WSW 8.1 mph - N/A   Mostly Cloudy
12:35 PM - - - N/A% 29.93 in 10.0 mi WNW 4.6 mph - N/A   Mostly Cloudy
12:55 PM 76.6 °F - 71.1 °F 83% 29.93 in 10.0 mi NW 5.8 mph - N/A   Overcast
1:15 PM 79.3 °F - 72.1 °F 79% 29.93 in 10.0 mi North 3.5 mph - N/A   Mostly Cloudy
1:35 PM 80.1 °F 83.7 °F 71.4 °F 75% 29.92 in 10.0 mi Calm Calm - N/A   Mostly Cloudy
1:55 PM 80.2 °F 83.7 °F 70.9 °F 73% 29.91 in 10.0 mi WNW 4.6 mph - N/A   Mostly Cloudy
2:15 PM 81.5 °F 85.9 °F 71.6 °F 72% 29.91 in 10.0 mi NNW 4.6 mph - N/A   Mostly Cloudy
2:35 PM 81.7 °F 86.0 °F 71.4 °F 71% 29.91 in 10.0 mi Calm Calm - N/A   Mostly Cloudy
2:55 PM - - - N/A% 29.90 in 10.0 mi NW 3.5 mph - N/A   Scattered Clouds
3:10 PM 82.0 °F 85.9 °F 70.0 °F 67% 29.90 in 10.0 mi WSW 4.6 mph - N/A   Scattered Clouds
3:35 PM 82.8 °F 87.2 °F 70.9 °F 67% 29.90 in 10.0 mi WNW 4.6 mph - N/A   Scattered Clouds
3:55 PM 82.6 °F 86.8 °F 70.5 °F 67% 29.89 in 10.0 mi West 4.6 mph - N/A   Scattered Clouds
4:15 PM 83.7 °F 88.9 °F 71.6 °F 67% 29.89 in 10.0 mi WNW 3.5 mph - N/A   Scattered Clouds
4:35 PM 82.9 °F 87.7 °F 71.2 °F 68% 29.88 in 10.0 mi Calm Calm - N/A   Mostly Cloudy
5:15 PM 82.9 °F 87.0 °F 70.2 °F 65% 29.87 in 10.0 mi West 4.6 mph - N/A   Scattered Clouds
5:35 PM 82.8 °F 86.9 °F 70.3 °F 66% 29.87 in 10.0 mi WSW 3.5 mph - N/A   Clear
5:55 PM 82.6 °F 86.1 °F 69.3 °F 64% 29.87 in 10.0 mi WSW 5.8 mph - N/A   Clear
6:15 PM 82.6 °F 86.1 °F 69.4 °F 64% 29.88 in 10.0 mi Calm Calm - N/A   Clear
6:35 PM 82.2 °F 85.8 °F 69.4 °F 65% 29.88 in 10.0 mi Calm Calm - N/A   Clear
6:55 PM 81.5 °F 85.1 °F 70.2 °F 68% 29.88 in 10.0 mi Calm Calm - N/A   Clear
7:15 PM 81.5 °F 85.3 °F 70.3 °F 69% 29.89 in 10.0 mi Calm Calm - N/A   Clear
7:35 PM 79.7 °F - 70.9 °F 74% 29.89 in 10.0 mi Calm Calm - N/A   Clear
7:55 PM 78.4 °F - 72.3 °F 81% 29.89 in 10.0 mi Calm Calm - N/A   Clear
8:15 PM 78.6 °F - 71.2 °F 78% 29.90 in 10.0 mi Calm Calm - N/A   Clear
8:35 PM 76.6 °F - 71.1 °F 83% 29.90 in 10.0 mi Calm Calm - N/A   Clear
8:55 PM 77.7 °F - 70.9 °F 79% 29.90 in 10.0 mi Calm Calm - N/A   Clear
9:15 PM 75.9 °F - 71.1 °F 85% 29.91 in 10.0 mi Calm Calm - N/A   Clear
9:35 PM 73.9 °F - 70.9 °F 90% 29.92 in 10.0 mi Calm Calm - N/A   Clear
9:55 PM 74.3 °F - 71.4 °F 91% 29.92 in 10.0 mi SSE 3.5 mph - N/A   Clear
10:15 PM 75.0 °F - 71.8 °F 90% 29.91 in 10.0 mi South 3.5 mph - N/A   Clear
10:35 PM 73.4 °F - 71.1 °F 92% 29.91 in 10.0 mi Calm Calm - N/A   Clear
10:55 PM 72.9 °F - 71.4 °F 95% 29.92 in 7.0 mi WSW 3.5 mph - N/A   Clear
11:15 PM 72.7 °F - 71.8 °F 97% 29.92 in 5.0 mi WSW 3.5 mph - N/A   Clear
11:35 PM 72.9 °F - 71.8 °F 96% 29.93 in 5.0 mi Calm Calm - N/A   Clear
11:55 PM 73.0 °F - 71.6 °F 95% 29.94 in 7.0 mi SSW 4.6 mph - N/A   Clear